User: anonymous   Login
Location: Simi Valley
(34.2690°N, 118.7810°W)
Time: 17:12:23
(UTC-07:00)
Language:

SAR-Lupe-1 - Orbit

View from above orbital plane
View from above orbital plane
View from above satellite
View from above satellite

Ground track
Ground track

The orbit data is extracted from the following two-line orbital elements,

1 29658U 06060A   17264.82143148 0.00001900  00000-0  70899-4 0    03
2 29658  98.1398 324.9583 0005000 341.2413  18.7586 15.27424698    00
Epoch (UTC): 21 September 2017 19:42:51
Eccentricity: 0.0005000
inclination: 98.1398°
perigee height: 480 km
apogee height: 487 km
right ascension of ascending node: 324.9583°
argument of perigee: 341.2413°
revolutions per day: 15.27424698
mean anomaly at epoch: 18.7586°
orbit number at epoch: 0

The dashed part of the orbit path shows where the satellite is in the earth's shadow,  

DLR